DECAYED

STARLINK-30937, 58392 (Decayed)

Orbit data source: Space-Track

STARLINK-30937, 58392 was a payload satellite owned by SpaceX/Seattle (US) in LEO that was launched on Mon, 20 Nov 2023 UTC via an FALCON 9 launch vehicle from the Air Force Western Test Range (AFWTR). Payload-class satellites include a variety of spacecraft equipped with specific instruments for various scientific and technological missions. These include communications satellites like Starlink; space stations such as the ISS; scientific satellites like the Hubble; Earth observation satellites from companies like Planet Labs, Umbra, and HawkEye 360; GPS; miniature CubeSats for education and research; and military/defense satellites.

Not visible in the next 10 days
Identifier
58392, 2023-178U
Orbit
Decayed
Country
Flag of USUS
Related business
Manufacturer
SpaceX/Seattle
Mission
Decayed Commercial Communications
Bus & Motor
STARLINK V2M, Unknown motor
Mass
730 kg wet, ~700 kg dry
Launch date (UTC)
2023-11-20 (3 years ago)
Launch vehicle
FALCON 9
Launch site
Air Force Western Test Range (AFWTR)
Object type
Payload
Rocket body
Debris
Shape & HBR
Box + 2 Pan, 17.7 m
Radar Cross Section
33.884 m², Large (>1 m²)

Expand to show TLE details & history
Last TLE update: 9 months ago

TLE from 9 months ago
0 STARLINK-30937
1 58392U 23178U   25268.05590912  .14312103  12108-4  53536-2 0  9997
2 58392  53.1260  37.2609 0015915 322.1286  37.8634 16.23320199104718
Epoch: 2025-09-25T01:20Z
TLE epoch observation values (Epoch: 2025-09-25T01:20:30.547Z)
Latitude
-0.00003°
Longitude
13.01107°
Altitude
203.213 km
Speed
7.791 km/s
True Right ascension
02h 29m 02s
True Declination
0° 00' 00"
Sunlit
Object was in full shadow at epoch
Visualization orbit readout
Latitude
Unknown
Longitude
Unknown
Altitude
Unknown
Speed
Unknown
Apparent Right ascension
Unknown
Apparent Declination
Unknown
Sunlit
N/A
Visualization observer readout
Local Sidereal Time
21:29:26
Azimuth
Unknown
Elevation
Unknown
Doppler factor
Unknown
Orbital elements
Apogee altitude
221.311 km
Perigee altitude
200.338 km
Semi-major axis
6,588.962 km
Eccentricity
0.00159
Inclination
53.126°
RAAN
37.2609°
Arg. of periapsis
322.1286°
True anomaly
37.97551°
Mean anomaly
37.8634°
Eccentric anomaly
37.91944°
Mean motion
4.05805 °/min
Orbital period
88.71 mins
BSTAR
0.0053536
Loading maneuver chart data...
Computing Atmospheric mass density...
Loading historical data...
Loading historical data...
Loading historical data...
Loading historical data...
Loading historical data...
Loading historical data...
Loading historical data...

Documentation

Showing up to 5 results
|